Location: PACMO
(41.3967°N, 90.3760°W)
Time: 07:21:37
(UTC-05:00)

Amateur Radio Satellites - All Passes

Search period start: 03 July 2015 06:51
Search period end: 04 July 2015 06:51
Location: PACMO, 41.3967°N, 90.3760°W

Satellite Date Start Highest point End Downlink Frequencies (MHz)
Time Altitude Azimuth
BEESAT 2 03 Jul 06:55:52 06:56:36 11° 109° (ESE) 06:57:34 435.950
DANDE 03 Jul 06:58:51 06:59:28 10° 88° (E) 07:00:36 436.750
O/OREOS (USA 219) 03 Jul 07:14:21 07:17:33 20° 102° (ESE) 07:20:54 437.305
PRISM 03 Jul 07:21:11 07:25:21 75° 258° (WSW) 07:29:34 437.425
RS-15 03 Jul 07:28:16 07:36:25 22° 356° (N) 07:44:46 29.354- 29.394
CUSAT 1 03 Jul 07:43:02 07:48:53 33° 96° (E) 07:53:39 437.405
AO-7 03 Jul 07:43:06 07:48:10 17° 311° (NW) 07:52:49 29.400- 29.500
GONETS M04 03 Jul 07:45:56 07:49:13 13° 77° (ENE) 07:53:10
CUTE-I 03 Jul 07:46:49 07:52:10 69° 287° (WNW) 07:57:29 437.470
AUBIESAT-1 03 Jul 08:01:01 08:03:48 26° 65° (ENE) 08:06:43 437.475
AIST 2 03 Jul 08:02:43 08:05:01 15° 111° (ESE) 08:07:30 435.215
BRITE-PL 03 Jul 08:04:04 08:07:03 18° 91° (E) 08:10:03 437.365/2234.400
VERMONT LUNAR 03 Jul 08:13:15 08:15:41 21° 154° (SSE) 08:18:09 437.305
BEESAT 3 03 Jul 08:19:59 08:24:03 72° 303° (WNW) 08:28:10 437.485
Cubesat XI-IV 03 Jul 08:20:56 08:25:48 35° 292° (WNW) 08:30:35 437.490
STRAND 1 03 Jul 08:24:15 08:28:10 21° 268° (W) 08:31:57 437.568
Cosmos 2504 03 Jul 08:26:17 08:31:01 17° 298° (WNW) 08:35:25 435.465 / 435.565
BEESAT 2 03 Jul 08:30:02 08:34:08 72° 303° (WNW) 08:38:17 435.950
M-CUBED/EXP-1 PRIME 03 Jul 08:33:19 08:36:36 87° 78° (ENE) 08:40:01 437.505
DANDE 03 Jul 08:34:54 08:42:23 70° 98° (E) 08:48:10 436.750
DOVE 4 03 Jul 08:38:51 08:41:15 15° 90° (E) 08:43:49 437.250
O/OREOS (USA 219) 03 Jul 08:52:35 08:56:45 38° 299° (WNW) 09:00:55 437.305
SEEDS 03 Jul 08:56:49 08:59:46 19° 92° (E) 09:02:51 437.485
AAUSAT CUBESAT 2 03 Jul 09:11:41 09:14:34 18° 92° (E) 09:17:34 437.432
ISS 03 Jul 09:15:42 09:18:57 87° 132° (SE) 09:22:12 145.825
GOMX 1 03 Jul 09:24:09 09:28:25 86° 107° (ESE) 09:32:33 467.674
CUSAT 1 03 Jul 09:25:31 09:31:28 34° 284° (WNW) 09:36:08 437.405
CINEMA 3 03 Jul 09:34:16 09:37:52 29° 96° (E) 09:41:35 145.822/145.860
COMPASS 1 03 Jul 09:35:42 09:39:41 39° 97° (E) 09:43:41 437.405
GONETS M04 03 Jul 09:35:59 09:44:43 74° 94° (E) 09:53:27
AUBIESAT-1 03 Jul 09:36:30 09:38:41 16° 262° (W) 09:40:49 437.475
HO-68 03 Jul 09:36:55 09:44:02 64° 102° (ESE) 09:51:08 435.675
AIST 2 03 Jul 09:39:00 09:43:11 56° 306° (NW) 09:47:25 435.215
DELFI C3 03 Jul 09:39:10 09:39:44 10° 88° (E) 09:40:33 145.870
CUTE 1.7 + AOD 2 03 Jul 09:40:54 09:45:11 73° 101° (ESE) 09:49:28 437.475
BRITE-PL 03 Jul 09:41:49 09:45:50 35° 289° (WNW) 09:49:38 437.365/2234.400
RS-15 03 Jul 09:43:56 09:53:48 32° 30° (NNE) 10:04:15 29.354- 29.394
CANX-2 03 Jul 09:44:01 09:48:20 88° 94° (E) 09:52:38 2200.000
PHONESAT 2.4 03 Jul 09:46:46 09:49:34 23° 154° (SSE) 09:52:23 2401.200-2431.200
VERMONT LUNAR 03 Jul 09:49:13 09:52:19 62° 170° (S) 09:55:26 437.305
UWE-3 03 Jul 09:50:29 09:53:08 17° 91° (E) 09:55:57 435.000/436.395/437.385
ANTELSAT 03 Jul 10:01:04 10:04:38 26° 69° (ENE) 10:08:15 437.575/2403.000
BEESAT 3 03 Jul 10:01:50 10:02:49 11° 324° (NW) 10:03:39 437.485
BEESAT 2 03 Jul 10:11:55 10:13:01 11° 324° (NW) 10:13:57 435.950
TIGRISAT 03 Jul 10:13:43 10:17:36 34° 71° (ENE) 10:21:29 435.000
DOVE 4 03 Jul 10:15:23 10:19:19 41° 288° (WNW) 10:23:12 437.250
DANDE 03 Jul 10:20:42 10:25:47 20° 290° (WNW) 10:29:52 436.750
QB50P1 03 Jul 10:21:01 10:23:55 19° 67° (ENE) 10:26:57 145.935-145.965
DX 1 03 Jul 10:28:24 10:29:39 11° 88° (E) 10:31:10 434.975-435.025
CUBEBUG 2 03 Jul 10:31:44 10:35:53 61° 100° (E) 10:40:08 437.445
SEEDS 03 Jul 10:31:47 10:35:44 37° 288° (WNW) 10:39:39 437.485
NANOSAT C BR1 03 Jul 10:35:09 10:38:38 26° 69° (ENE) 10:42:09 145.865
ZACube-1 03 Jul 10:40:10 10:44:13 46° 99° (E) 10:48:21 437.345
DUCHIFAT 1 03 Jul 10:42:22 10:46:02 30° 70° (ENE) 10:49:45 145.980
POLYITAN 1 03 Jul 10:45:29 10:49:18 34° 71° (ENE) 10:53:10 437.675
Cosmos 2499 03 Jul 10:46:08 10:52:33 40° 89° (E) 10:59:07 435.465 / 435.565
AAUSAT CUBESAT 2 03 Jul 10:46:25 10:50:20 37° 288° (WNW) 10:54:12 437.432
UKube-1 03 Jul 10:50:01 10:52:59 19° 92° (E) 10:56:05 .
Oscar 11 03 Jul 10:52:03 10:56:24 75° 284° (WNW) 11:00:44 145.826/435.025
UNISAT 6 03 Jul 10:52:22 10:56:41 83° 257° (WSW) 11:00:59 437.425
ISS 03 Jul 10:53:12 10:55:42 20° 342° (NNW) 10:58:11 145.825
AISAT 03 Jul 10:59:15 11:01:36 15° 90° (E) 11:04:10 437.250
BUGSAT 1 03 Jul 11:05:14 11:09:05 35° 71° (ENE) 11:12:57 437.445
HUMSAT D 03 Jul 11:10:23 11:14:20 42° 98° (E) 11:18:20 437.325/437.525
DELFI C3 03 Jul 11:11:15 11:15:18 61° 285° (WNW) 11:19:18 145.870
CINEMA 3 03 Jul 11:11:41 11:15:01 23° 291° (WNW) 11:18:16 145.822/145.860
COMPASS 1 03 Jul 11:12:09 11:15:06 18° 293° (WNW) 11:17:55 437.405
QB50P2 03 Jul 11:14:56 11:19:10 74° 76° (ENE) 11:23:25 145.880/145.840
POPSAT HIP 1 03 Jul 11:16:01 11:20:15 74° 76° (ENE) 11:24:30 437.405
FUNcube-1 03 Jul 11:16:53 11:21:04 69° 285° (WNW) 11:25:19 145.935
CUTE 1.7 + AOD 2 03 Jul 11:19:17 11:20:34 11° 296° (WNW) 11:21:39 437.475
CUBEBUG 1 03 Jul 11:21:44 11:23:47 13° 89° (E) 11:26:02 437.445
PHONESAT 2.4 03 Jul 11:23:52 11:27:17 65° 170° (S) 11:30:43 2401.200-2431.200
50 SAT 03 Jul 11:25:08 11:28:35 30° 96° (E) 11:32:04 437.505
HO-68 03 Jul 11:25:31 11:31:18 27° 300° (WNW) 11:36:55 435.675
ESTCUBE 1 03 Jul 11:25:46 11:28:55 19° 92° (E) 11:32:10 437.505/2401.250
UWE-3 03 Jul 11:25:56 11:29:54 41° 287° (WNW) 11:33:54 435.000/436.395/437.385
VERMONT LUNAR 03 Jul 11:26:02 11:29:11 71° 186° (S) 11:32:20 437.305
GONETS M04 03 Jul 11:35:33 11:42:34 25° 296° (WNW) 11:49:16
ANTELSAT 03 Jul 11:37:44 11:41:24 26° 265° (W) 11:44:59 437.575/2403.000
VELOX 1 03 Jul 11:47:34 11:51:50 47° 99° (E) 11:56:05 145.980
TIGRISAT 03 Jul 11:51:16 11:54:29 20° 267° (W) 11:57:34 435.000
QB50P1 03 Jul 11:55:33 11:59:32 39° 262° (W) 12:03:31 145.935-145.965
RS-15 03 Jul 11:56:29 12:08:16 84° 57° (ENE) 12:20:30 29.354- 29.394
DX 1 03 Jul 12:02:06 12:06:25 64° 286° (WNW) 12:10:41 434.975-435.025
CUBEBUG 2 03 Jul 12:10:23 12:12:10 12° 295° (WNW) 12:13:47 437.445
NANOSAT C BR1 03 Jul 12:10:45 12:14:23 27° 265° (W) 12:18:00 145.865
ZACube-1 03 Jul 12:17:39 12:20:17 16° 294° (WNW) 12:22:47 437.345
DUCHIFAT 1 03 Jul 12:18:26 12:21:52 23° 266° (W) 12:25:13 145.980
POLYITAN 1 03 Jul 12:22:05 12:25:19 20° 267° (W) 12:28:26 437.675
UKube-1 03 Jul 12:25:16 12:29:18 38° 289° (WNW) 12:33:18 .
SPROUT 03 Jul 12:27:53 12:31:03 21° 93° (E) 12:34:19 437.525
ISS 03 Jul 12:31:16 12:33:00 14° 2° (N) 12:34:45 145.825
AISAT 03 Jul 12:34:16 12:38:34 51° 287° (WNW) 12:42:48 437.250
Cosmos 2499 03 Jul 12:39:26 12:45:48 34° 289° (WNW) 12:52:09 435.465 / 435.565
BUGSAT 1 03 Jul 12:41:32 12:44:41 19° 267° (W) 12:47:42 437.445
HUMSAT D 03 Jul 12:47:05 12:49:47 17° 293° (WNW) 12:52:23 437.325/437.525
CUBEBUG 1 03 Jul 12:56:16 13:00:33 54° 287° (WNW) 13:04:46 437.445
50 SAT 03 Jul 13:00:08 13:03:03 20° 292° (WNW) 13:05:53 437.505
ESTCUBE 1 03 Jul 13:01:42 13:06:00 42° 289° (WNW) 13:10:15 437.505/2401.250
PHONESAT 2.4 03 Jul 13:01:47 13:05:14 73° 187° (S) 13:08:43 2401.200-2431.200
VERMONT LUNAR 03 Jul 13:03:06 13:05:53 28° 203° (SSW) 13:08:41 437.305
Gurwin Techsat 1B 03 Jul 13:11:43 13:14:38 16° 62° (ENE) 13:17:46 435.225
Oscar 19 03 Jul 13:14:00 13:18:57 50° 72° (ENE) 13:23:56 437.125/150
TISAT 1 03 Jul 13:14:03 13:18:02 43° 98° (E) 13:22:02 437.305
YUBILEINY 03 Jul 13:15:23 13:20:43 18° 59° (ENE) 13:26:32 435.215
ITAMSAT 1 03 Jul 13:24:24 13:27:56 19° 63° (ENE) 13:31:39 435.822/435.867
VELOX 1 03 Jul 13:25:08 13:28:03 17° 295° (WNW) 13:30:49 145.980
SPROUT 03 Jul 14:03:22 14:07:15 34° 289° (WNW) 14:11:04 437.525
ISS 03 Jul 14:07:29 14:10:15 25° 22° (NNE) 14:13:01 145.825
RS-15 03 Jul 14:10:19 14:19:42 27° 256° (WSW) 14:28:47 29.354- 29.394
HORYU 2 03 Jul 14:39:23 14:41:02 12° 63° (ENE) 14:42:54 437.375
PHONESAT 2.4 03 Jul 14:39:56 14:43:03 31° 203° (SSW) 14:46:10 2401.200-2431.200
BEESAT 03 Jul 14:40:56 14:45:41 60° 101° (E) 14:50:25 436.000
Gurwin Techsat 1B 03 Jul 14:48:45 14:54:03 74° 257° (WSW) 14:59:24 435.225
TISAT 1 03 Jul 14:50:47 14:53:31 17° 294° (WNW) 14:56:05 437.305
Oscar 19 03 Jul 14:54:55 14:58:39 19° 269° (W) 15:02:13 437.125/150
AO-7 03 Jul 14:55:33 15:02:54 37° 60° (ENE) 15:10:25 29.400- 29.500
SWISSCUBE 03 Jul 14:56:18 15:01:09 88° 289° (WNW) 15:05:57 437.505
ITUPSAT 1 03 Jul 15:01:02 15:05:52 88° 288° (WNW) 15:10:42 437.325
ITAMSAT 1 03 Jul 15:01:55 15:07:02 57° 259° (W) 15:12:13 435.822/435.867
BEESAT 3 03 Jul 15:03:29 15:03:45 10° 35° (NE) 15:04:10 437.485
YUBILEINY 03 Jul 15:10:21 15:19:09 85° 82° (E) 15:27:58 435.215
BEESAT 2 03 Jul 15:13:42 15:14:18 10° 35° (NE) 15:15:03 435.950
Cosmos 2491 03 Jul 15:30:33 15:39:08 60° 92° (E) 15:47:46 435.465 / 435.565
JAS-2 03 Jul 15:32:17 15:37:23 69° 74° (ENE) 15:42:45 435.910
STARS 03 Jul 15:33:07 15:36:25 21° 93° (E) 15:39:50 437.465
ISS 03 Jul 15:43:39 15:46:49 51° 219° (SW) 15:49:57 145.825
PCSat 03 Jul 15:50:19 15:55:18 39° 112° (ESE) 16:00:21 145.827
AIST 1 03 Jul 15:52:37 15:56:49 48° 94° (E) 16:01:06
HORYU 2 03 Jul 16:12:46 16:17:10 70° 258° (WSW) 16:21:35 437.375
KKS-1 03 Jul 16:13:49 16:18:16 82° 284° (WNW) 16:22:41 437.445
BEESAT 03 Jul 16:20:06 16:23:05 16° 297° (WNW) 16:25:54 436.000
Cosmos 2504 03 Jul 16:20:51 16:27:17 29° 69° (ENE) 16:34:17 435.465 / 435.565
AIST 2 03 Jul 16:23:32 16:25:39 14° 38° (NE) 16:27:52 435.215
MOZHAYETS 4 03 Jul 16:24:34 16:26:49 14° 88° (E) 16:29:18
SWISSCUBE 03 Jul 16:37:09 16:38:19 11° 300° (WNW) 16:39:14 437.505
BEESAT 3 03 Jul 16:38:29 16:42:33 68° 56° (NE) 16:46:32 437.485
ITUPSAT 1 03 Jul 16:41:52 16:43:05 11° 300° (WNW) 16:44:02 437.325
AO-7 03 Jul 16:47:22 16:55:28 53° 259° (W) 17:03:37 29.400- 29.500
BEESAT 2 03 Jul 16:49:06 16:53:12 70° 55° (NE) 16:57:13 435.950
STARS 03 Jul 17:09:00 17:12:59 34° 290° (WNW) 17:16:54 437.465
YUBILEINY 03 Jul 17:09:06 17:15:00 19° 280° (W) 17:20:27 435.215
SO-50 03 Jul 17:14:57 17:19:32 54° 118° (ESE) 17:24:19 436.795
JAS-2 03 Jul 17:20:55 17:23:22 13° 274° (W) 17:25:31 435.910
O/OREOS (USA 219) 03 Jul 17:22:54 17:27:10 40° 62° (ENE) 17:31:28 437.305
Cosmos 2491 03 Jul 17:28:57 17:36:37 31° 293° (WNW) 17:44:05 435.465 / 435.565
CUTE-I 03 Jul 17:30:02 17:34:21 26° 66° (ENE) 17:38:47 437.470
AIST 1 03 Jul 17:32:11 17:34:51 15° 292° (WNW) 17:37:20
PCSat 03 Jul 17:33:58 17:38:49 32° 310° (NW) 17:43:38 145.827
MOZHAYETS 4 03 Jul 17:59:54 18:04:30 60° 286° (WNW) 18:09:05
AIST 2 03 Jul 18:00:37 18:04:51 84° 238° (WSW) 18:08:59 435.215
Cubesat XI-IV 03 Jul 18:02:54 18:08:03 51° 71° (ENE) 18:13:16 437.490
Cosmos 2504 03 Jul 18:13:36 18:21:08 57° 268° (W) 18:29:09 435.465 / 435.565
BEESAT 3 03 Jul 18:19:03 18:19:59 10° 251° (WSW) 18:20:41 437.485
CUBESAT XI-V 03 Jul 18:24:21 18:27:52 21° 92° (E) 18:31:27 437.345
BEESAT 2 03 Jul 18:29:51 18:30:44 10° 251° (WSW) 18:31:23 435.950
STRAND 1 03 Jul 18:55:33 18:58:29 16° 89° (E) 19:01:37 437.568
SO-50 03 Jul 18:56:35 19:00:26 23° 318° (NW) 19:04:19 436.795
GOMX 1 03 Jul 18:57:27 18:59:01 12° 63° (ENE) 19:00:50 467.674
O/OREOS (USA 219) 03 Jul 19:03:02 19:06:20 19° 258° (WSW) 19:09:31 437.305
PRISM 03 Jul 19:04:45 19:07:06 15° 91° (E) 19:09:37 437.425
CUTE-I 03 Jul 19:09:09 19:14:14 42° 262° (W) 19:19:19 437.470
BRITE-PL 03 Jul 19:13:46 19:18:20 29° 69° (ENE) 19:22:48 437.365/2234.400
DANDE 03 Jul 19:18:21 19:20:53 27° 73° (ENE) 19:23:12 436.750
DOVE 4 03 Jul 19:44:11 19:47:37 20° 68° (ENE) 19:51:03 437.250
Cubesat XI-IV 03 Jul 19:44:27 19:48:30 21° 269° (W) 19:52:24 437.490
GONETS M04 03 Jul 19:46:33 19:54:20 36° 70° (ENE) 20:02:13
SEEDS 03 Jul 19:50:02 19:52:07 14° 65° (ENE) 19:54:24 437.485
CUBESAT XI-V 03 Jul 20:01:05 20:05:28 39° 289° (WNW) 20:09:47 437.345
AAUSAT CUBESAT 2 03 Jul 20:03:43 20:05:37 13° 65° (ENE) 20:07:42 437.432
CUSAT 1 03 Jul 20:03:44 20:05:55 22° 266° (W) 20:08:01 437.405
HO-68 03 Jul 20:05:24 20:12:08 48° 67° (ENE) 20:18:57 435.675
COMPASS 1 03 Jul 20:27:14 20:30:43 27° 70° (ENE) 20:34:18 437.405
GOMX 1 03 Jul 20:31:24 20:36:37 88° 248° (WSW) 20:41:32 467.674
STRAND 1 03 Jul 20:33:06 20:38:13 63° 286° (WNW) 20:43:16 437.568
CUTE 1.7 + AOD 2 03 Jul 20:33:41 20:37:45 50° 74° (ENE) 20:41:52 437.475
CINEMA 3 03 Jul 20:36:09 20:40:00 29° 71° (ENE) 20:43:48 145.822/145.860
CANX-2 03 Jul 20:36:49 20:40:57 62° 75° (ENE) 20:45:09 2200.000
Cosmos 2499 03 Jul 20:36:55 20:40:54 15° 60° (ENE) 20:45:32 435.465 / 435.565
PRISM 03 Jul 20:38:48 20:42:50 45° 288° (WNW) 20:46:49 437.425
UWE-3 03 Jul 20:48:39 20:50:54 15° 66° (ENE) 20:53:19 435.000/436.395/437.385
BRITE-PL 03 Jul 20:51:36 20:56:45 38° 263° (W) 21:01:34 437.365/2234.400
AUBIESAT-1 03 Jul 21:14:30 21:18:03 26° 101° (E) 21:21:51 437.475
DOVE 4 03 Jul 21:20:26 21:25:09 44° 262° (W) 21:29:37 437.250
SEEDS 03 Jul 21:23:27 21:27:31 52° 261° (W) 21:31:39 437.485
DX 1 03 Jul 21:24:42 21:26:03 12° 62° (ENE) 21:27:38 434.975-435.025
CUBEBUG 2 03 Jul 21:30:02 21:34:12 51° 74° (ENE) 21:38:19 437.445
ZACube-1 03 Jul 21:36:23 21:40:14 36° 72° (ENE) 21:44:05 437.345
AAUSAT CUBESAT 2 03 Jul 21:36:45 21:40:48 54° 260° (W) 21:44:53 437.432
GONETS M04 03 Jul 21:43:11 21:51:28 50° 270° (W) 21:59:39
UKube-1 03 Jul 21:45:21 21:48:09 17° 65° (ENE) 21:51:05 .
Oscar 11 03 Jul 21:46:35 21:50:53 84° 77° (ENE) 21:55:13 145.826/435.025
M-CUBED/EXP-1 PRIME 03 Jul 21:47:26 21:51:38 69° 107° (ESE) 21:56:08 437.505
HO-68 03 Jul 21:53:43 22:00:06 33° 265° (W) 22:06:22 435.675
AISAT 03 Jul 21:57:33 21:59:58 15° 64° (ENE) 22:02:34 437.250
DELFI C3 03 Jul 21:58:09 22:02:09 79° 76° (ENE) 22:06:11 145.870
HUMSAT D 03 Jul 22:02:27 22:06:00 30° 71° (ENE) 22:09:37 437.325/437.525
COMPASS 1 03 Jul 22:02:58 22:06:24 24° 266° (W) 22:09:46 437.405
50 SAT 03 Jul 22:10:09 22:12:42 18° 68° (ENE) 22:15:22 437.505
CUTE 1.7 + AOD 2 03 Jul 22:11:52 22:14:02 13° 271° (W) 22:16:01 437.475
FUNcube-1 03 Jul 22:12:31 22:16:45 88° 255° (WSW) 22:20:56 145.935
CINEMA 3 03 Jul 22:13:23 22:17:14 26° 265° (W) 22:20:52 145.822/145.860
CANX-2 03 Jul 22:16:08 22:17:24 11° 273° (W) 22:18:24 2200.000
CUBEBUG 1 03 Jul 22:18:36 22:20:32 13° 64° (ENE) 22:22:39 437.445
UWE-3 03 Jul 22:22:57 22:27:07 50° 261° (W) 22:31:12 435.000/436.395/437.385
ESTCUBE 1 03 Jul 22:25:51 22:28:55 19° 66° (ENE) 22:32:08 437.505/2401.250
Cosmos 2499 03 Jul 22:27:37 22:35:28 78° 81° (E) 22:43:56 435.465 / 435.565
UNISAT 6 03 Jul 22:44:45 22:47:54 20° 93° (E) 22:51:14 437.425
VELOX 1 03 Jul 22:45:03 22:49:16 43° 72° (ENE) 22:53:32 145.980
AUBIESAT-1 03 Jul 22:49:03 22:52:46 31° 294° (WNW) 22:56:39 437.475
DX 1 03 Jul 22:57:23 23:01:46 74° 258° (WSW) 23:06:10 434.975-435.025
QB50P2 03 Jul 23:02:17 23:03:45 12° 89° (E) 23:05:27 145.880/145.840
POPSAT HIP 1 03 Jul 23:03:18 23:04:40 12° 89° (E) 23:06:17 437.405
CUBEBUG 2 03 Jul 23:09:03 23:11:15 13° 270° (W) 23:13:15 437.445
ZACube-1 03 Jul 23:13:46 23:16:46 18° 268° (W) 23:19:38 437.345
UKube-1 03 Jul 23:19:48 23:23:58 45° 261° (W) 23:28:09 .
SPROUT 03 Jul 23:22:42 23:25:29 17° 66° (ENE) 23:28:24 437.525
M-CUBED/EXP-1 PRIME 03 Jul 23:24:02 23:26:05 13° 300° (WNW) 23:28:00 437.505
ANTELSAT 03 Jul 23:28:23 23:32:43 59° 100° (E) 23:37:09 437.575/2403.000
AISAT 03 Jul 23:31:43 23:36:08 57° 260° (W) 23:40:32 437.250
HUMSAT D 03 Jul 23:38:36 23:41:48 21° 267° (W) 23:44:55 437.325/437.525
QB50P1 03 Jul 23:40:30 23:44:15 31° 96° (E) 23:48:01 145.935-145.965
TIGRISAT 03 Jul 23:41:05 23:45:27 79° 102° (ESE) 23:49:54 435.000
50 SAT 03 Jul 23:43:39 23:47:08 32° 263° (W) 23:50:36 437.505
CUBEBUG 1 03 Jul 23:52:00 23:56:24 66° 259° (W) 00:00:50 437.445
NANOSAT C BR1 03 Jul 23:54:49 23:58:52 45° 99° (E) 00:02:54 145.865
ESTCUBE 1 04 Jul 00:01:08 00:05:29 45° 262° (W) 00:09:52 437.505/2401.250
DUCHIFAT 1 04 Jul 00:01:59 00:06:06 53° 100° (E) 00:10:11 145.980
POLYITAN 1 04 Jul 00:06:03 00:10:14 63° 101° (E) 00:14:24 437.675
TISAT 1 04 Jul 00:06:13 00:10:01 33° 70° (ENE) 00:13:51 437.305
SO-50 04 Jul 00:08:06 00:09:25 11° 30° (NNE) 00:10:54 436.795
UNISAT 6 04 Jul 00:20:47 00:24:50 37° 289° (WNW) 00:28:56 437.425
BUGSAT 1 04 Jul 00:22:22 00:26:24 59° 100° (E) 00:30:22 437.445
Cosmos 2499 04 Jul 00:22:24 00:27:59 20° 277° (W) 00:33:26 435.465 / 435.565
VELOX 1 04 Jul 00:22:57 00:26:04 18° 268° (W) 00:29:02 145.980
SWISSCUBE 04 Jul 00:28:17 00:30:16 13° 62° (ENE) 00:32:29 437.505
ITUPSAT 1 04 Jul 00:33:11 00:35:13 13° 62° (ENE) 00:37:29 437.325
QB50P2 04 Jul 00:35:56 00:40:05 57° 286° (WNW) 00:44:12 145.880/145.840
POPSAT HIP 1 04 Jul 00:36:51 00:41:00 58° 286° (WNW) 00:45:06 437.405
PCSat 04 Jul 00:37:55 00:42:49 34° 50° (NE) 00:47:45 145.827
SPROUT 04 Jul 00:57:09 01:01:16 43° 262° (W) 01:05:24 437.525
ANTELSAT 04 Jul 01:06:46 01:09:06 14° 295° (WNW) 01:11:17 437.575/2403.000
QB50P1 04 Jul 01:16:40 01:19:59 22° 292° (WNW) 01:23:10 145.935-145.965
TIGRISAT 04 Jul 01:20:38 01:21:41 11° 297° (WNW) 01:22:29 435.000
Oscar 19 04 Jul 01:26:31 01:29:47 17° 90° (E) 01:33:15 437.125/150
NANOSAT C BR1 04 Jul 01:31:44 01:34:22 16° 294° (WNW) 01:36:52 145.865
DUCHIFAT 1 04 Jul 01:39:17 01:41:30 14° 295° (WNW) 01:43:34 145.980
Cosmos 2491 04 Jul 01:41:18 01:48:35 29° 66° (ENE) 01:56:03 435.465 / 435.565
TISAT 1 04 Jul 01:42:36 01:45:52 21° 267° (W) 01:49:02 437.305
POLYITAN 1 04 Jul 01:43:56 01:45:40 12° 296° (WNW) 01:47:12 437.675
SO-50 04 Jul 01:46:21 01:51:12 51° 52° (NE) 01:55:58 436.795
BEESAT 04 Jul 01:47:19 01:52:03 69° 74° (ENE) 01:56:50 436.000
BUGSAT 1 04 Jul 01:59:49 02:01:24 12° 296° (WNW) 02:02:48 437.445
AIST 1 04 Jul 02:01:22 02:03:14 13° 67° (ENE) 02:05:18
SWISSCUBE 04 Jul 02:02:47 02:07:33 77° 258° (WSW) 02:12:23 437.505
ITUPSAT 1 04 Jul 02:07:46 02:12:33 76° 258° (WSW) 02:17:23 437.325
YUBILEINY 04 Jul 02:18:19 02:23:42 19° 80° (E) 02:29:33 435.215
RS-15 04 Jul 02:20:07 02:30:28 54° 113° (ESE) 02:41:13 29.354- 29.394
PCSat 04 Jul 02:21:19 02:26:16 36° 249° (WSW) 02:31:08 145.827
STARS 04 Jul 02:30:25 02:33:35 20° 67° (ENE) 02:36:53 437.465
Oscar 19 04 Jul 03:04:32 03:09:34 56° 288° (WNW) 03:14:34 437.125/150
Gurwin Techsat 1B 04 Jul 03:05:00 03:10:04 44° 98° (E) 03:15:08 435.225
KKS-1 04 Jul 03:11:45 03:16:13 90° 252° (WSW) 03:20:42 437.445
ITAMSAT 1 04 Jul 03:14:38 03:19:44 51° 100° (E) 03:24:48 435.822/435.867
MOZHAYETS 4 04 Jul 03:27:11 03:29:27 14° 64° (ENE) 03:31:55
SO-50 04 Jul 03:27:42 03:31:26 21° 249° (WSW) 03:34:59 436.795
BEESAT 04 Jul 03:28:21 03:30:29 12° 272° (W) 03:32:20 436.000
AIST 1 04 Jul 03:37:05 03:41:23 56° 266° (W) 03:45:35
Cosmos 2491 04 Jul 03:37:33 03:46:08 62° 268° (W) 03:54:37 435.465 / 435.565
HORYU 2 04 Jul 04:04:29 04:07:54 22° 93° (E) 04:11:26 437.375
STARS 04 Jul 04:05:42 04:09:49 38° 262° (W) 04:13:55 437.465
YUBILEINY 04 Jul 04:10:50 04:19:33 84° 279° (W) 04:28:19 435.215
JAS-2 04 Jul 04:23:55 04:30:29 66° 101° (E) 04:37:52 435.910
RS-15 04 Jul 04:32:35 04:43:07 48° 317° (NW) 04:53:58 29.354- 29.394
Gurwin Techsat 1B 04 Jul 04:45:31 04:49:49 25° 294° (WNW) 04:53:59 435.225
AO-7 04 Jul 04:48:31 04:56:41 55° 101° (ESE) 05:04:50 29.400- 29.500
ITAMSAT 1 04 Jul 04:55:00 04:58:55 21° 296° (WNW) 05:02:40 435.822/435.867
MOZHAYETS 4 04 Jul 05:01:40 05:06:11 63° 259° (W) 05:10:47
Cosmos 2504 04 Jul 05:01:46 05:06:39 21° 83° (E) 05:11:49 435.465 / 435.565
CUBESAT XI-V 04 Jul 05:27:59 05:31:30 22° 67° (ENE) 05:35:10 437.345
HORYU 2 04 Jul 05:40:35 05:44:39 35° 290° (WNW) 05:48:41 437.375
PRISM 04 Jul 05:55:56 05:57:35 12° 63° (ENE) 05:59:25 437.425
JAS-2 04 Jul 06:10:03 06:15:14 24° 295° (WNW) 06:20:37 435.910
STRAND 1 04 Jul 06:11:11 06:15:11 24° 66° (ENE) 06:19:19 437.568
YUBILEINY 04 Jul 06:12:20 06:18:00 18° 301° (WNW) 06:23:14 435.215
Cubesat XI-IV 04 Jul 06:20:57 06:24:45 20° 91° (E) 06:28:43 437.490
BEESAT 3 04 Jul 06:33:35 06:35:01 12° 110° (ESE) 06:36:40 437.485
BEESAT 2 04 Jul 06:44:55 06:46:36 13° 110° (ESE) 06:48:29 435.950
